Regional Weather Roundup
Issued by NWS

Home | Current Version | Previous Version | Text Only | Print | Product List | Glossary Off
Versions: 1 2 3 4 5 6 7 8 9 10 11 12 13 14 15 16 17 18 19 20 21 22 23 24 25 26 27 28 29 30 31 32 33 34 35 36 37 38 39 40 41 42 43 44 45 46 47 48 49 50

015
ASUS43 KDMX 141208
RWRIA

WEATHER ROUNDUP FOR IOWA
NATIONAL WEATHER SERVICE DES MOINES IA
600 AM CST SUN FEB 14 2016

NOTE: "FAIR" INDICATES FEW OR NO CLOUDS BELOW 12,000 FEET WITH NO
SIGNIFICANT WEATHER AND/OR OBSTRUCTIONS TO VISIBILITY.

* - THESE STATIONS ARE NOT NWS STATIONS...THUS NOT UNDER NWS
QUALITY CONTROL.  THEY ALSO DO NOT REPORT WEATHER SUCH
AS PRECIPITATION OR FOG.

IAZ001>003-012>014-020>022-031>034-043>046-141300-
   NORTHWEST IOWA

CITY           SKY/WX    TMP DP  RH WIND       PRES   REMARKS
CARROLL *      CLOUDY    16  12  86 SE15      29.97F FOG     WCI   1
CHEROKEE *     CLOUDY    15  12  89 SE13      29.94F WCI   1
DENISON *      CLOUDY    18  14  86 S14       29.92F WCI   4
LE MARS *      LGT SNOW  16  14  93 SE13G18   29.91F WCI   2
ORANGE CITY *  LGT SNOW  14  12  92 SE8       29.89F VSB 3/4 WCI   3
SHELDON *      SNOW      12  10  92 SE21      29.89F VSB 1/2 WCI  -6
SIOUX CITY     LGT SNOW  19  12  74 SE15      29.90F WCI   5
6HR MIN TEMP:  18; 6HR MAX TEMP:  19; 6HR PCP: TRACE;

SPENCER        LGT SNOW  13   8  81 SE17      29.95F VSB 1   WCI  -4
6HR MIN TEMP:  11; 6HR MAX TEMP:  13; 6HR PCP: TRACE;

STORM LAKE *   CLOUDY    14  12  92 SE20G26   29.92F WCI  -3
$$

IAZ055>058-069>071-079>083-090>094-141300-
   SOUTHWEST IOWA

CITY           SKY/WX    TMP DP  RH WIND       PRES   REMARKS
ATLANTIC *     CLOUDY    18  14  86 S15G21    29.96F WCI   3
AUDUBON *      CLOUDY    18  12  79 SE13G23   29.96S WCI   4
CLARINDA *     CLOUDY    19  16  86 S13G21    30.00F WCI   7
COUNCIL BLFS * CLOUDY    21   9  58 S13G21    29.92F WCI   9
CRESTON *      LGT SNOW  16  14  93 SE18G24   29.98F WCI  -1
HARLAN  *      CLOUDY    18  14  86 S14G21    29.98S WCI   4
LAMONI         SNOW      17  14  88 SE12      30.02F VSB 1/2 WCI   4
6HR MIN TEMP:  17; 6HR MAX TEMP:  20; 6HR PCP:  0.02;

RED OAK *      CLOUDY    19  16  86 S13G20    29.97F WCI   7
SHENANDOAH *   CLOUDY    23   7  50 S13       29.99F WCI  11
$$

IAZ047>049-059>061-072>074-084-141300-
   CENTRAL IOWA

CITY           SKY/WX    TMP DP  RH WIND       PRES   REMARKS
AMES           CLOUDY    16  11  80 SE18G24   30.05F WCI   0
6HR MIN TEMP:  13; 6HR MAX TEMP:  16; 6HR PCP: TRACE;

ANKENY *       CLOUDY    16  10  79 SE16      30.05F WCI   0
BOONE *        LGT SNOW  16  12  86 SE22      30.00F WCI  -2
CHARITON *     LGT SNOW  18  10  73 SE16      30.05F WCI   3
DES MOINES     LGT SNOW  18  10  71 SE15G23   30.04F VSB 1   WCI   4
6HR MIN TEMP:  15; 6HR MAX TEMP:  18; 6HR PCP: TRACE;

GRINNELL*      CLOUDY    16  12  86 SE15      30.08F WCI   1
KNOXVILLE *    LGT SNOW  18  10  73 SE16G22   30.06F WCI   3
MARSHALLTOWN   CLOUDY    15  11  83 SE22      30.07F WCI  -3
6HR MIN TEMP:  14; 6HR MAX TEMP:  16; 6HR PCP: TRACE;

NEWTON *       FLURRIES  16  14  93 SE22      30.07F WCI  -2
PELLA *        CLOUDY    17  12  80 SE10G16   30.11S WCI   5
$$

IAZ004>006-015-016-023>025-035-036-141300-
   NORTH CENTRAL IOWA

CITY           SKY/WX    TMP DP  RH WIND       PRES   REMARKS
ALGONA *       CLOUDY    14  12  92 SE22G30   29.98F FOG     WCI  -4
CLARION *      CLOUDY    16  10  79 SE23G29   30.01F FOG     WCI  -2
ESTHERVILLE    FOG       12  11  95 SE28      29.96F VSB 1/4 WCI  -9
6HR MIN TEMP:  11; 6HR MAX TEMP:  13; 6HR PCP: TRACE;

FORT DODGE *   CLOUDY    16   9  73 SE13G20   30.01F WCI   2
MASON CITY     CLOUDY    13   9  84 SE21      30.05F FOG     WCI  -5
6HR MIN TEMP:   8; 6HR MAX TEMP:  13; 6HR PCP: TRACE;

FOREST CITY *  LGT SNOW  14  10  85 SE15G21   30.02F WCI  -1
WEBSTER CITY * CLOUDY    16  12  86 SE22G28   30.00F FOG     WCI  -2
IOWA FALLS *   CLOUDY    18  12  79 SE21      30.03F FOG     WCI   1
$$

IAZ007>011-017>019-026>030-037>042-050>054-066-141300-
   NORTHEAST IOWA

CITY           SKY/WX    TMP DP  RH WIND       PRES   REMARKS
CEDAR RAPIDS   CLOUDY    16  13  88 SE16      30.14F WCI   1
6HR MIN TEMP:  15; 6HR MAX TEMP:  16; 6HR PCP: TRACE;

CHARLES CITY * CLOUDY    14  10  85 SE20      30.09F WCI  -3
CLINTON *      FLURRIES  17   6  62 SE16      30.25F WCI   2
DUBUQUE        CLOUDY    13   5  70 SE13      30.20F WCI  -2
6HR MIN TEMP:  11; 6HR MAX TEMP:  13;

MONTICELLO *   CLOUDY    16   7  67 SE15G22   30.19F WCI   1
OELWEIN *      LGT SNOW  14   9  79 SE21G26   30.11F WCI  -4
WATERLOO       CLOUDY    16   9  74 SE16      30.10F WCI   1
6HR MIN TEMP:  14; 6HR MAX TEMP:  16; 6HR PCP:  0.01;

$$

IAZ064-065-067-068-078-141300-
   EAST CENTRAL IOWA

CITY           SKY/WX    TMP DP  RH WIND       PRES   REMARKS
DAVENPORT      FLURRIES  16   9  74 SE17      30.23F WCI   0
6HR MIN TEMP:  16; 6HR MAX TEMP:  18; 6HR PCP: TRACE;

IOWA CITY      CLOUDY    16  12  84 SE16      30.18F WCI   1
6HR MIN TEMP:  16; 6HR MAX TEMP:  18; 6HR PCP: TRACE;

MT. PLEASANT * CLOUDY    19  15  86 SE15G22   30.16F WCI   4
MUSCATINE *    CLOUDY    18  14  86 SE10G18   30.21F WCI   6
QUAD CITIES    LGT SNOW  17  11  77 SE14      30.24F WCI   3
6HR MIN TEMP:  17; 6HR MAX TEMP:  19; 6HR PCP:  0.01;

$$

IAZ062-063-075>077-085>089-095>099-141300-
   SOUTHEAST IOWA

CITY           SKY/WX    TMP DP  RH WIND       PRES   REMARKS
BURLINGTON     CLOUDY    16  13  88 SE18      30.17F WCI   0
6HR MIN TEMP:  15; 6HR MAX TEMP:  16; 6HR PCP:  0.05;

FAIRFIELD *    CLOUDY    16  12  86 SE20      30.12F WCI  -1
FORT MADISON * CLOUDY    16  12  86 SE13G22   30.17F WCI   2
KEOKUK *       CLOUDY    19  14  79 SE17G24   30.15F WCI   4
OSKALOOSA *    CLOUDY    16  13  88 SE18      30.11F WCI   0
CENTERVILLE *  PTCLDY    18  10  73 SE10      30.10S WCI   6
OTTUMWA        CLOUDY    17  13  84 SE17      30.09F WCI   1
6HR MIN TEMP:  15; 6HR MAX TEMP:  17; 6HR PCP: TRACE;

WASHINGTON *   CLOUDY    16  14  93 SE20G26   30.17F WCI  -1
$$

ABBREVIATIONS USED IN REMARKS
   TC - TEMPERATURES IN CELSIUS
  WCI - WIND CHILL INDEX
   HX - HEAT INDEX
  VSB - VISIBILITY
$$





USA.gov is the U.S. government's official web portal to all federal, state and local government web resources and services.